FW9813 Weather Reports


Display with metric or nautical units.
time (UTC)temp
F
wind
direction
speed
MPH
gust
MPH
rain 1hr
in
rain 24hr
in
rain mn
in
humidity
%
barometer
mb
20260504024542 56 0 0.0 0.0 0.00 0.00 0.00 44 1003.2
20260504023040 58 0 0.0 0.0 0.00 0.00 0.00 41 1003.4
20260504021537 60 0 0.0 0.0 0.00 0.00 0.00 38 1003.5
20260504020048 61 0 0.0 2.0 0.00 0.00 0.00 38 1003.5
20260504014544 62 0 0.0 2.0 0.00 0.00 0.00 36 1003.5
20260504013044 64 0 0.0 1.0 0.00 0.00 0.00 34 1003.6
20260504011541 65 0 0.0 1.0 0.00 0.00 0.00 32 1003.5
20260504010049 66 165 0.0 4.0 0.00 0.00 0.00 30 1003.6
20260504004545 67 176 1.0 5.0 0.00 0.00 0.00 29 1003.6
20260504003107 67 184 1.0 7.0 0.00 0.00 0.00 29 1003.7
20260504001539 67 0 1.0 11.0 0.00 0.00 0.00 28 1003.8
20260504000052 69 227 2.0 9.0 0.00 0.00 0.00 25 1004.0
20260503234543 69 132 3.0 11.0 0.00 0.00 0.00 26 1004.0
20260503233043 70 155 2.0 7.0 0.00 0.00 0.00 26 1004.0
20260503231541 70 169 2.0 8.0 0.00 0.00 0.00 26 1004.2
20260503230041 70 205 2.0 8.0 0.00 0.00 0.00 27 1004.3
20260503224540 70 141 2.0 9.0 0.00 0.00 0.00 27 1004.3
20260503223044 70 210 2.0 11.0 0.00 0.00 0.00 27 1004.5
20260503221551 70 186 2.0 9.0 0.00 0.00 0.00 25 1004.6
20260503220043 70 229 4.0 9.0 0.00 0.00 0.00 26 1004.7
20260503214538 70 0 2.0 10.0 0.00 0.00 0.00 27 1004.8
20260503213038 70 229 3.0 10.0 0.00 0.00 0.00 25 1005.0
20260503211546 69 148 2.0 10.0 0.00 0.00 0.00 27 1005.1
20260503210043 70 206 4.0 11.0 0.00 0.00 0.00 27 1005.2
20260503204543 70 147 3.0 10.0 0.00 0.00 0.00 27 1005.4
20260503203046 70 225 3.0 10.0 0.00 0.00 0.00 25 1005.7
20260503201541 69 173 2.0 15.0 0.00 0.00 0.00 28 1005.6
20260503200038 69 221 4.0 9.0 0.00 0.00 0.00 26 1005.9
20260503194542 68 219 1.0 9.0 0.00 0.00 0.00 28 1005.9
20260503193048 68 254 2.0 9.0 0.00 0.00 0.00 28 1006.1
20260503191542 68 212 3.0 13.0 0.00 0.00 0.00 29 1006.2
20260503190043 67 205 4.0 15.0 0.00 0.00 0.00 28 1006.7
20260503184541 67 184 4.0 14.0 0.00 0.00 0.00 28 1006.7
20260503183053 67 232 5.0 16.0 0.00 0.00 0.00 29 1006.8
20260503181554 67 195 4.0 15.0 0.00 0.00 0.00 32 1006.8
20260503180041 66 248 5.0 15.0 0.00 0.00 0.00 33 1007.0
20260503174543 66 345 5.0 15.0 0.00 0.00 0.00 33 1007.1
20260503173047 66 206 8.0 19.0 0.00 0.00 0.00 34 1007.1
20260503171540 66 267 6.0 14.0 0.00 0.00 0.00 32 1007.3
20260503081541 54 0 0.0 3.0 0.00 0.00 0.00 55 1004.7
20260503071552 55 0 0.0 3.0 0.00 0.00 0.00 56 1005.1
20260503054546 56 121 1.0 8.0 0.00 0.00 0.00 53 1006.2
20260503053043 56 57 0.0 2.0 0.00 0.00 0.00 51 1006.2
20260503051544 56 0 0.0 2.0 0.00 0.00 0.00 51 1006.8
20260503050042 56 98 0.0 3.0 0.00 0.00 0.00 50 1007.0
20260503044543 56 88 0.0 2.0 0.00 0.00 0.00 49 1007.1
20260503043043 57 0 0.0 2.0 0.00 0.00 0.00 48 1007.2
20260503041540 58 0 0.0 2.0 0.00 0.00 0.00 47 1007.3
20260503040043 58 92 0.0 3.0 0.00 0.00 0.00 47 1007.5
20260503034541 59 0 0.0 2.0 0.00 0.00 0.00 47 1007.7
20260503033046 59 76 0.0 3.0 0.00 0.00 0.00 47 1008.1
20260503031539 59 76 0.0 4.0 0.00 0.00 0.00 47 1008.3
20260503030037 59 84 0.0 2.0 0.00 0.00 0.00 48 1008.6